SVFLIR Weather Reports


Display with metric or nautical units.
time (UTC)temp
F
wind
direction
speed
MPH
gust
MPH
rain 1hr
in
rain 24hr
in
rain mn
in
humidity
%
barometer
mb
20260509185705 94 292 0.0 12.0 0.00 0.00 0.00 100 1009.4
20260509185204 95 272 7.0 12.0 0.00 0.00 0.00 100 1009.4
20260509184935 94 306 4.0 12.0 0.00 0.00 0.00 100 1009.4
20260509184203 96 253 4.0 12.0 0.00 0.00 0.00 100 1009.4
20260509183702 95 234 6.0 12.0 0.00 0.00 0.00 100 1009.4
20260509183203 95 205 2.0 9.0 0.00 0.00 0.00 100 1009.4
20260509182702 95 239 5.0 9.0 0.00 0.00 0.00 100 1009.4
20260509182201 94 222 5.0 9.0 0.00 0.00 0.00 100 1009.4
20260509181701 94 239 2.0 9.0 0.00 0.00 0.00 100 1009.4
20260509180919 94 239 6.0 9.0 0.00 0.00 0.00 100 1009.4
20260509180159 93 246 6.0 8.0 0.00 0.00 0.00 100 1009.4
20260509175658 94 274 5.0 9.0 0.00 0.00 0.00 100 1009.4
20260509175425 93 175 3.0 9.0 0.00 0.00 0.00 100 1009.4
20260509174655 92 236 6.0 9.0 0.00 0.00 0.00 100 1009.4
20260509174154 92 264 4.0 11.0 0.00 0.00 0.00 100 1009.4
20260509173653 92 253 4.0 11.0 0.00 0.00 0.00 100 1009.4
20260509173153 92 292 5.0 10.0 0.00 0.00 0.00 100 1009.4
20260509172652 90 104 2.0 3.0 0.00 0.00 0.00 100 1009.4
20260509172137 89 323 0.0 6.0 0.00 0.00 0.00 100 1009.4
20260509171636 89 222 1.0 7.0 0.00 0.00 0.00 100 1009.4
20260509171136 88 232 0.0 9.0 0.00 0.00 0.00 100 1009.4
20260509170623 89 216 6.0 10.0 0.00 0.00 0.00 100 1009.4
20260509170123 88 319 5.0 10.0 0.00 0.00 0.00 100 1009.4
20260509165622 89 264 3.0 7.0 0.00 0.00 0.00 100 1009.4
20260509165121 90 285 3.0 6.0 0.00 0.00 0.00 100 1009.4
20260509164112 87 194 4.0 9.0 0.00 0.00 0.00 100 1009.4
20260509163611 87 258 1.0 9.0 0.00 0.00 0.00 100 1009.4
20260509163111 87 262 5.0 8.0 0.00 0.00 0.00 100 1009.4
20260509162833 87 230 4.0 8.0 0.00 0.00 0.00 100 1009.4
20260509162111 86 257 3.0 9.0 0.00 0.00 0.00 100 1009.4
20260509161609 85 253 3.0 9.0 0.00 0.00 0.00 100 1009.4
20260509161333 85 216 4.0 9.0 0.00 0.00 0.00 100 1009.4
20260509160826 85 225 3.0 9.0 0.00 0.00 0.00 100 1009.4
20260509160107 84 219 5.0 9.0 0.00 0.00 0.00 100 1009.4
20260509155606 85 188 5.0 9.0 0.00 0.00 0.00 100 1009.4
20260509155331 83 156 4.0 9.0 0.00 0.00 0.00 100 1009.4
20260509154605 84 226 7.0 9.0 0.00 0.00 0.00 100 1009.4
20260509154104 83 223 1.0 9.0 0.00 0.00 0.00 100 1009.4
20260509153604 83 175 5.0 9.0 0.00 0.00 0.00 100 1009.4
20260509153104 83 237 4.0 8.0 0.00 0.00 0.00 100 1009.4
20260509152603 83 188 2.0 10.0 0.00 0.00 0.00 100 1009.4
20260509152319 81 171 0.0 10.0 0.00 0.00 0.00 100 1009.4
20260509151542 82 239 7.0 10.0 0.00 0.00 0.00 100 1009.4
20260509151041 82 222 2.0 9.0 0.00 0.00 0.00 100 1009.4
20260509150540 82 185 4.0 9.0 0.00 0.00 0.00 100 1009.4
20260509150040 81 247 5.0 9.0 0.00 0.00 0.00 100 1009.4
20260509145038 80 222 3.0 7.0 0.00 0.00 0.00 100 1009.4
20260509144537 80 163 3.0 8.0 0.00 0.00 0.00 100 1009.4
20260509144038 80 187 4.0 8.0 0.00 0.00 0.00 100 1009.4
20260509142535 79 185 3.0 6.0 0.00 0.00 0.00 100 1009.4
20260509142034 79 174 3.0 6.0 0.00 0.00 0.00 100 1009.4
20260509141033 78 161 4.0 6.0 0.00 0.00 0.00 100 1009.4
20260509140533 77 167 3.0 4.0 0.00 0.00 0.00 100 1009.4
20260509140032 75 123 2.0 4.0 0.00 0.00 0.00 100 1009.4
20260509135532 74 146 3.0 4.0 0.00 0.00 0.00 100 1009.4
20260509135030 70 132 2.0 3.0 0.00 0.00 0.00 100 1009.4
20260509134522 68 127 0.0 0.0 0.00 0.00 0.00 100 1009.4
20260509134019 65 127 0.0 0.0 0.00 0.00 0.00 100 1009.4
20260509133500 65 127 0.0 0.0 0.00 0.00 0.00 100 1009.4
20260509132947 64 127 0.0 0.0 0.00 0.00 0.00 100 1009.4
20260509132711 64 127 0.0 0.0 0.00 0.00 0.00 100 1009.4
20260509131940 63 127 0.0 0.0 0.00 0.00 0.00 100 1009.4
20260509131439 62 127 0.0 0.0 0.00 0.00 0.00 100 1009.4
20260509131151 60 127 0.0 0.0 0.00 0.00 0.00 100 1009.4
20260509130412 61 127 0.0 0.0 0.00 0.00 0.00 100 1009.4
20260509125911 60 127 0.0 0.0 0.00 0.00 0.00 100 1009.4
20260509125353 60 127 0.0 0.0 0.00 0.00 0.00 100 1009.4
20260509124832 61 127 0.0 0.0 0.00 0.00 0.00 100 1009.4
20260509124327 61 127 0.0 0.0 0.00 0.00 0.00 100 1009.4
20260509123825 58 127 0.0 1.0 0.00 0.00 0.00 100 1009.4
20260509123322 58 127 0.0 1.0 0.00 0.00 0.00 100 1009.4
20260509122821 60 127 0.0 1.0 0.00 0.00 0.00 100 1009.4
20260509122318 61 127 0.0 0.0 0.00 0.00 0.00 100 1009.4
20260509122023 60 127 0.0 0.0 0.00 0.00 0.00 100 1009.4
20260509121524 59 127 0.0 0.0 0.00 0.00 0.00 100 1009.4
20260509121022 59 127 0.0 0.0 0.00 0.00 0.00 100 1009.4
20260509120250 59 127 0.0 0.0 0.00 0.00 0.00 100 1009.4
20260509115749 59 127 0.0 0.0 0.00 0.00 0.00 100 1009.4
20260509115248 59 127 0.0 0.0 0.00 0.00 0.00 100 1009.4
20260509115001 59 127 0.0 0.0 0.00 0.00 0.00 100 1009.4
20260509114211 59 127 0.0 2.0 0.00 0.00 0.00 100 1009.4
20260509113916 59 127 0.0 2.0 0.00 0.00 0.00 100 1009.4
20260509113417 59 172 0.0 1.0 0.00 0.00 0.00 100 1009.4
20260509112640 59 61 0.0 0.0 0.00 0.00 0.00 100 1009.4
20260509112113 59 61 0.0 0.0 0.00 0.00 0.00 100 1009.4
20260509111613 59 61 0.0 0.0 0.00 0.00 0.00 100 1009.4
20260509111324 59 61 0.0 0.0 0.00 0.00 0.00 100 1009.4
20260509110559 59 61 0.0 0.0 0.00 0.00 0.00 100 1009.4
20260509110051 59 61 0.0 0.0 0.00 0.00 0.00 100 1009.4
20260509105532 59 61 0.0 0.0 0.00 0.00 0.00 100 1009.4
20260509105028 59 61 0.0 0.0 0.00 0.00 0.00 100 1009.4
20260509104524 59 61 0.0 0.0 0.00 0.00 0.00 100 1009.4
20260509104024 60 61 0.0 0.0 0.00 0.00 0.00 100 1009.4
20260509103745 60 61 0.0 0.0 0.00 0.00 0.00 100 1009.4
20260509102955 60 61 0.0 0.0 0.00 0.00 0.00 100 1009.4
20260509102454 60 61 0.0 0.0 0.00 0.00 0.00 100 1009.4
20260509101943 60 61 0.0 0.0 0.00 0.00 0.00 100 1009.4
20260509101433 61 61 0.0 0.0 0.00 0.00 0.00 100 1009.4
20260509100927 61 61 0.0 0.0 0.00 0.00 0.00 100 1009.4
20260509100408 62 61 0.0 0.0 0.00 0.00 0.00 100 1009.4
20260509095840 62 61 0.0 0.0 0.00 0.00 0.00 100 1009.4
20260509095314 62 61 0.0 0.0 0.00 0.00 0.00 100 1009.4
20260509095006 62 61 0.0 0.0 0.00 0.00 0.00 100 1009.4
20260509094220 62 61 0.0 0.0 0.00 0.00 0.00 100 1009.4
20260509093923 63 61 0.0 0.0 0.00 0.00 0.00 100 1009.4
20260509093422 64 61 0.0 0.0 0.00 0.00 0.00 100 1009.4
20260509092646 64 61 0.0 0.0 0.00 0.00 0.00 100 1009.4
20260509092118 64 61 0.0 0.0 0.00 0.00 0.00 100 1009.4
20260509091818 64 61 0.0 0.0 0.00 0.00 0.00 100 1009.4
20260509091044 64 61 0.0 0.0 0.00 0.00 0.00 100 1009.4
20260509090534 64 61 0.0 0.0 0.00 0.00 0.00 100 1009.4
20260509090017 64 61 0.0 0.0 0.00 0.00 0.00 100 1009.4
20260509085514 65 61 0.0 0.0 0.00 0.00 0.00 100 1009.4
20260509085010 64 61 0.0 0.0 0.00 0.00 0.00 100 1009.4
20260509084509 65 61 0.0 0.0 0.00 0.00 0.00 100 1009.4
20260509084008 64 61 0.0 0.0 0.00 0.00 0.00 100 1009.4
20260509083726 65 61 0.0 0.0 0.00 0.00 0.00 100 1009.4
20260509083218 65 61 0.0 0.0 0.00 0.00 0.00 100 1009.4
20260509082428 65 61 0.0 0.0 0.00 0.00 0.00 100 1009.4
20260509081911 65 61 0.0 0.0 0.00 0.00 0.00 100 1009.4
20260509081636 65 61 0.0 0.0 0.00 0.00 0.00 100 1009.4
20260509080854 66 61 0.0 0.0 0.00 0.00 0.00 100 1009.4
20260509080349 66 61 0.0 0.0 0.00 0.00 0.00 100 1009.4
20260509075838 66 61 0.0 0.0 0.00 0.00 0.00 100 1009.4
20260509075320 67 61 0.0 2.0 0.00 0.00 0.00 100 1009.4
20260509075040 68 61 0.0 2.0 0.00 0.00 0.00 100 1009.4
20260509074539 67 61 0.0 0.0 0.00 0.00 0.00 100 1009.4
20260509073813 67 61 0.0 0.0 0.00 0.00 0.00 100 1009.4
20260509073532 67 61 0.0 0.0 0.00 0.00 0.00 100 1009.4
20260509072810 67 61 0.0 3.0 0.00 0.00 0.00 100 1009.4
20260509072306 67 61 0.0 3.0 0.00 0.00 0.00 100 1009.4
20260509071803 68 139 0.0 2.0 0.00 0.00 0.00 100 1009.4
20260509071256 69 139 0.0 1.0 0.00 0.00 0.00 100 1009.4
20260509070755 70 139 0.0 0.0 0.00 0.00 0.00 100 1009.4
20260509070243 71 139 0.0 0.0 0.00 0.00 0.00 100 1009.4
20260509065707 72 139 0.0 0.0 0.00 0.00 0.00 100 1009.4
20260509065416 73 139 0.0 0.0 0.00 0.00 0.00 100 1009.4
20260509064646 74 139 0.0 0.0 0.00 0.00 0.00 100 1009.4
20260509064141 74 139 0.0 0.0 0.00 0.00 0.00 100 1009.4
20260509063640 75 139 0.0 0.0 0.00 0.00 0.00 100 1009.4
20260509063401 76 139 0.0 0.0 0.00 0.00 0.00 100 1009.4
20260509062828 75 139 0.0 0.0 0.00 0.00 0.00 100 1009.4
20260509062040 75 139 0.0 0.0 0.00 0.00 0.00 100 1009.4
20260509061531 75 139 0.0 1.0 0.00 0.00 0.00 100 1009.4
20260509061020 76 139 0.0 1.0 0.00 0.00 0.00 100 1009.4
20260509060511 76 149 0.0 3.0 0.00 0.00 0.00 100 1009.4
20260509060009 76 149 0.0 3.0 0.00 0.00 0.00 100 1009.4
20260509055448 77 241 0.0 0.0 0.00 0.00 0.00 100 1009.4
20260509054931 78 241 0.0 0.0 0.00 0.00 0.00 100 1009.4
20260509054616 79 241 0.0 0.0 0.00 0.00 0.00 100 1009.4
20260509053843 79 241 0.0 0.0 0.00 0.00 0.00 100 1009.4
20260509053341 78 241 0.0 0.0 0.00 0.00 0.00 100 1009.4
20260509052829 79 241 0.0 0.0 0.00 0.00 0.00 100 1009.4
20260509052306 80 241 0.0 0.0 0.00 0.00 0.00 100 1009.4
20260509051736 80 241 0.0 6.0 0.00 0.00 0.00 100 1009.4
20260509051215 83 241 1.0 6.0 0.00 0.00 0.00 100 1009.4
20260509050714 83 253 3.0 6.0 0.00 0.00 0.00 100 1009.4
20260509050213 83 255 2.0 6.0 0.00 0.00 0.00 100 1009.4
20260509045713 83 262 4.0 7.0 0.00 0.00 0.00 100 1009.4
20260509045435 83 237 0.0 8.0 0.00 0.00 0.00 100 1009.4
20260509044712 85 248 5.0 9.0 0.00 0.00 0.00 100 1009.4
20260509044211 85 257 6.0 9.0 0.00 0.00 0.00 100 1009.4
20260509043711 85 264 6.0 9.0 0.00 0.00 0.00 100 1009.4
20260509043210 85 233 7.0 8.0 0.00 0.00 0.00 100 1009.4
20260509042930 85 237 7.0 8.0 0.00 0.00 0.00 100 1009.4
20260509042209 86 260 5.0 10.0 0.00 0.00 0.00 100 1009.4
20260509041708 87 237 7.0 13.0 0.00 0.00 0.00 100 1009.4
20260509041208 87 257 7.0 13.0 0.00 0.00 0.00 100 1009.4
20260509040706 88 248 8.0 14.0 0.00 0.00 0.00 100 1009.4
20260509040207 88 261 10.0 14.0 0.00 0.00 0.00 100 1009.4
20260509035706 89 241 9.0 14.0 0.00 0.00 0.00 100 1009.4
20260509035205 89 262 11.0 14.0 0.00 0.00 0.00 100 1009.4
20260509034705 88 262 10.0 13.0 0.00 0.00 0.00 100 1009.4
20260509034204 88 254 9.0 13.0 0.00 0.00 0.00 100 1009.4
20260509033703 88 271 10.0 12.0 0.00 0.00 0.00 100 1009.4
20260509033203 87 261 7.0 11.0 0.00 0.00 0.00 100 1009.4
20260509032702 88 275 7.0 13.0 0.00 0.00 0.00 100 1009.4
20260509032201 88 271 8.0 13.0 0.00 0.00 0.00 100 1009.4
20260509031700 88 271 9.0 13.0 0.00 0.00 0.00 100 1009.4
20260509031423 88 265 9.0 14.0 0.00 0.00 0.00 100 1009.4
20260509030700 88 275 8.0 14.0 0.00 0.00 0.00 100 1009.4
20260509030159 88 275 9.0 14.0 0.00 0.00 0.00 100 1009.4
20260509025658 88 271 6.0 9.0 0.00 0.00 0.00 100 1009.4
20260509025419 88 262 6.0 9.0 0.00 0.00 0.00 100 1009.4
20260509024657 89 270 8.0 9.0 0.00 0.00 0.00 100 1009.4
20260509024157 89 282 6.0 10.0 0.00 0.00 0.00 100 1009.4
20260509023656 88 270 7.0 11.0 0.00 0.00 0.00 100 1009.4
20260509023156 89 285 8.0 12.0 0.00 0.00 0.00 100 1009.4
20260509022920 90 270 8.0 12.0 0.00 0.00 0.00 100 1009.4
20260509022154 91 268 8.0 12.0 0.00 0.00 0.00 100 1009.4
20260509021653 91 264 9.0 13.0 0.00 0.00 0.00 100 1009.4
20260509021153 91 265 9.0 16.0 0.00 0.00 0.00 100 1009.4
20260509020653 91 257 9.0 16.0 0.00 0.00 0.00 100 1009.4
20260509020152 92 237 11.0 16.0 0.00 0.00 0.00 100 1009.4
20260509015652 92 274 8.0 19.0 0.00 0.00 0.00 100 1009.4
20260509015151 93 246 10.0 19.0 0.00 0.00 0.00 100 1009.4
20260509014650 93 258 11.0 19.0 0.00 0.00 0.00 100 1009.4
20260509014149 93 254 13.0 19.0 0.00 0.00 0.00 100 1009.4
20260509013649 93 241 11.0 19.0 0.00 0.00 0.00 100 1009.4
20260509013148 93 19 14.0 19.0 0.00 0.00 0.00 100 1009.4
20260509012648 94 247 9.0 18.0 0.00 0.00 0.00 100 1009.4
20260509012148 94 265 11.0 20.0 0.00 0.00 0.00 100 1009.4
20260509011647 94 258 12.0 20.0 0.00 0.00 0.00 100 1009.4
20260509010645 94 219 12.0 15.0 0.00 0.00 0.00 100 1009.4
20260509010145 94 246 11.0 16.0 0.00 0.00 0.00 100 1009.4
20260509005644 94 268 11.0 19.0 0.00 0.00 0.00 100 1009.4
20260509005143 94 272 12.0 19.0 0.00 0.00 0.00 100 1009.4
20260509004644 94 236 11.0 19.0 0.00 0.00 0.00 100 1009.4
20260509004142 94 247 11.0 18.0 0.00 0.00 0.00 100 1009.4
20260509003642 95 191 10.0 18.0 0.00 0.00 0.00 100 1009.4
20260509003359 95 257 13.0 16.0 0.00 0.00 0.00 100 1009.4
20260509002641 95 251 11.0 21.0 0.00 0.00 0.00 100 1009.4
20260509002140 94 279 11.0 21.0 0.00 0.00 0.00 100 1009.4
20260509001639 96 64 14.0 21.0 0.00 0.00 0.00 100 1009.4
20260509001139 94 262 10.0 17.0 0.00 0.00 0.00 100 1009.4
20260509000638 94 274 12.0 19.0 0.00 0.00 0.00 100 1009.4
20260509000138 95 298 10.0 19.0 0.00 0.00 0.00 100 1009.4
20260508235637 94 347 12.0 18.0 0.00 0.00 0.00 100 1009.4
20260508235136 95 254 15.0 18.0 0.00 0.00 0.00 100 1009.4
20260508234636 94 272 14.0 20.0 0.00 0.00 0.00 100 1009.4
20260508234135 94 241 9.0 20.0 0.00 0.00 0.00 100 1009.4
20260508233635 94 306 13.0 20.0 0.00 0.00 0.00 100 1009.4
20260508233134 95 260 10.0 16.0 0.00 0.00 0.00 100 1009.4
20260508232853 94 285 11.0 18.0 0.00 0.00 0.00 100 1009.4
20260508232132 94 277 9.0 18.0 0.00 0.00 0.00 100 1009.4
20260508231632 94 272 14.0 19.0 0.00 0.00 0.00 100 1009.4
20260508230631 93 267 13.0 21.0 0.00 0.00 0.00 100 1009.4
20260508230130 94 279 15.0 21.0 0.00 0.00 0.00 100 1009.4
20260508225629 94 281 17.0 20.0 0.00 0.00 0.00 100 1009.4
20260508225130 94 261 10.0 18.0 0.00 0.00 0.00 100 1009.4
20260508224629 94 267 12.0 20.0 0.00 0.00 0.00 100 1009.4
20260508224129 93 268 12.0 22.0 0.00 0.00 0.00 100 1009.4
20260508223627 94 277 10.0 22.0 0.00 0.00 0.00 100 1009.4
20260508223344 93 244 16.0 21.0 0.00 0.00 0.00 100 1009.4
20260508222627 93 284 10.0 19.0 0.00 0.00 0.00 100 1009.4
20260508222126 93 265 8.0 17.0 0.00 0.00 0.00 100 1009.4
20260508221625 93 272 9.0 17.0 0.00 0.00 0.00 100 1009.4
20260508221124 92 253 11.0 18.0 0.00 0.00 0.00 100 1009.4
20260508220623 93 285 14.0 19.0 0.00 0.00 0.00 100 1009.4
20260508220123 93 247 10.0 19.0 0.00 0.00 0.00 100 1009.4
20260508215623 93 275 13.0 19.0 0.00 0.00 0.00 100 1009.4
20260508215122 92 296 9.0 19.0 0.00 0.00 0.00 100 1009.4
20260508214842 92 261 6.0 18.0 0.00 0.00 0.00 100 1009.4
20260508214121 92 255 10.0 19.0 0.00 0.00 0.00 100 1009.4
20260508213620 92 230 12.0 19.0 0.00 0.00 0.00 100 1009.4
20260508213119 92 279 13.0 20.0 0.00 0.00 0.00 100 1009.4
20260508212619 92 296 12.0 20.0 0.00 0.00 0.00 100 1009.4
20260508212119 92 216 9.0 19.0 0.00 0.00 0.00 100 1009.4
20260508211835 92 243 7.0 14.0 0.00 0.00 0.00 100 1009.4
20260508211337 91 236 9.0 15.0 0.00 0.00 0.00 100 1009.4
20260508210618 87 277 10.0 18.0 0.00 0.00 0.00 100 1009.4
20260508210116 88 289 8.0 18.0 0.00 0.00 0.00 100 1009.4
20260508205615 88 286 12.0 17.0 0.00 0.00 0.00 100 1009.4
20260508205115 90 233 9.0 16.0 0.00 0.00 0.00 100 1009.4
20260508204614 88 195 10.0 16.0 0.00 0.00 0.00 100 1009.4
20260508204113 88 264 10.0 16.0 0.00 0.00 0.00 100 1009.4
20260508203833 87 227 7.0 16.0 0.00 0.00 0.00 100 1009.4
20260508203112 88 275 10.0 16.0 0.00 0.00 0.00 100 1009.4
20260508202612 89 262 7.0 13.0 0.00 0.00 0.00 100 1009.4
20260508202112 90 244 7.0 13.0 0.00 0.00 0.00 100 1009.4
20260508201843 90 260 6.0 15.0 0.00 0.00 0.00 100 1009.4
20260508201110 87 98 1.0 15.0 0.00 0.00 0.00 100 1009.4
20260508200608 90 247 10.0 14.0 0.00 0.00 0.00 100 1009.4
20260508200332 87 196 4.0 13.0 0.00 0.00 0.00 100 1009.4
20260508195606 89 278 7.0 12.0 0.00 0.00 0.00 100 1009.4
20260508195106 88 251 4.0 10.0 0.00 0.00 0.00 100 1009.4
20260508194605 87 216 6.0 11.0 0.00 0.00 0.00 100 1009.4
20260508194104 91 215 5.0 12.0 0.00 0.00 0.00 100 1009.4
20260508193823 91 196 6.0 13.0 0.00 0.00 0.00 100 1009.4
20260508193102 90 206 5.0 13.0 0.00 0.00 0.00 100 1009.4
20260508192603 90 250 1.0 11.0 0.00 0.00 0.00 100 1009.4
20260508192102 92 265 5.0 11.0 0.00 0.00 0.00 100 1009.4
20260508191601 92 232 6.0 11.0 0.00 0.00 0.00 100 1009.4
20260508191326 84 192 5.0 13.0 0.00 0.00 0.00 100 1009.4
20260508190600 90 135 1.0 13.0 0.00 0.00 0.00 100 1009.4
20260508190059 92 248 5.0 11.0 0.00 0.00 0.00 100 1009.4